Wind_Speed
2 2 3 3 4 4 5 5 5 5 4 3 3 3 3 3 3 3 2 1 1 1 1 1 1 0 1 1 1 2 2 3 3 3 3 4 5 5 6 6 7 7 8
3 2 2 2 2 2 3 3 4 4 4 3 2 2 2 2 2 2 1 1 1 0 1 1 1 1 1 2 3 3 3 4 4 4 5 6 7 6 7 7 8 8 8
3 3 3 2 2 2 2 2 3 4 3 3 2 1 1 1 1 1 1 1 1 1 2 2 2 2 3 3 4 4 5 5 5 6 7 7 7 8 8 9 9 9 9
5 4 4 4 3 4 3 3 3 4 4 3 3 2 1 1 1 2 2 2 2 2 3 3 4 4 4 5 4 4 5 6 7 7 8 9 9 9 9 10 10 10 11
7 6 6 6 5 5 5 5 5 5 5 5 4 3 3 3 3 3 4 4 4 3 4 4 5 5 6 6 6 7 7 7 8 9 10 10 11 11 11 11 12 12 12
9 9 8 7 7 7 6 7 7 6 6 6 6 5 5 5 5 5 5 5 5 4 5 6 6 7 7 7 8 8 9 9 10 10 11 12 12 12 12 12 13 13 13
10 10 9 8 9 9 9 9 8 7 7 8 8 6 6 6 6 7 6 6 6 6 7 8 8 8 8 8 9 9 10 10 11 11 12 13 13 13 13 14 14 14 14
11 10 9 9 9 10 10 10 10 9 8 8 8 7 7 8 8 8 8 9 9 9 9 9 9 9 9 9 10 10 11 12 13 12 12 13 13 14 14 14 14 14 15
11 11 11 11 11 11 10 11 11 10 9 9 8 9 9 9 10 10 10 10 11 11 10 10 11 11 11 11 11 12 12 13 13 13 13 13 14 14 15 16 16 16 15
14 13 12 12 13 12 11 12 12 10 10 10 10 10 11 11 11 12 12 12 12 12 12 12 12 13 13 13 13 13 13 13 13 13 13 14 14 15 15 16 16 16 16
16 14 14 13 13 14 13 13 13 12 12 12 12 12 12 12 12 13 14 13 13 13 13 14 14 14 14 14 14 14 14 14 14 14 14 15 16 16 17 16 17 17 17
17 16 15 14 14 15 15 14 14 14 13 13 13 13 13 14 14 14 15 15 14 14 14 15 14 14 14 15 15 16 16 16 16 16 17 17 17 18 18 18 18 18 19
17 16 16 16 16 16 16 16 16 15 15 15 14 14 15 15 15 15 15 16 16 16 16 15 16 15 16 16 16 16 17 17 18 18 19 19 19 20 21 21 20 21 22
17 16 16 16 17 17 17 17 16 16 17 17 17 17 16 16 16 17 17 17 17 17 16 17 17 17 17 17 17 17 18 19 19 20 21 22 22 22 23 23 23 23 24
18 17 17 16 17 17 17 17 17 17 18 18 19 19 17 17 18 18 18 17 17 17 18 18 17 18 18 18 19 19 19 20 20 21 22 23 23 23 24 24 24 24 24
18 17 17 17 18 17 17 18 18 18 18 18 18 18 18 18 18 18 18 18 18 18 18 18 18 19 19 20 20 21 21 21 21 22 23 24 25 25 24 24 24 25 25
19 18 18 18 18 18 18 19 19 19 19 19 19 20 20 20 19 19 20 20 20 20 19 19 20 20 20 21 21 21 22 22 23 23 24 25 26 26 25 25 24 24 26
20 20 19 19 19 19 18 19 19 19 20 20 20 21 21 20 19 20 20 20 20 20 20 20 20 20 21 21 22 22 23 24 24 24 25 26 26 26 25 25 24 25 25
23 23 21 20 20 20 20 20 20 20 21 21 21 21 21 21 21 20 21 21 21 21 21 21 21 22 22 22 23 23 24 24 25 26 26 26 26 26 26 25 25 25 25
25 24 23 23 22 22 21 21 21 21 22 21 21 21 20 20 20 21 22 22 22 22 21 21 22 22 21 21 22 24 24 24 24 25 25 26 26 27 26 26 26 25 25
27 26 25 25 24 24 23 23 21 21 22 22 22 21 22 22 22 23 23 23 23 23 23 23 23 23 23 23 24 25 25 25 25 26 26 26 26 26 25 25 25 25 25
28 27 27 26 25 24 24 23 22 22 22 23 23 22 22 23 23 24 24 24 24 24 24 25 25 25 25 25 25 26 27 27 27 27 27 26 26 26 26 26 26 26 26
28 28 28 27 26 25 24 24 22 23 23 24 23 23 23 23 24 25 25 25 26 25 25 25 25 26 26 26 26 27 27 27 27 27 26 26 27 27 27 27 26 27 27
29 29 28 28 28 28 26 25 24 25 25 25 25 25 26 26 26 26 27 27 27 26 26 26 26 27 27 28 28 27 27 28 28 27 26 26 26 27 26 26 26 27 28
31 31 31 29 28 28 28 28 27 27 27 26 27 27 27 28 28 28 28 28 28 28 28 27 28 28 28 28 28 28 28 28 28 27 27 27 27 27 27 27 27 27 28
33 32 31 30 30 30 30 31 30 30 30 29 29 29 29 30 30 30 30 29 29 29 30 30 29 29 29 29 29 28 27 27 27 27 27 27 27 28 28 28 28 27 27
Wind_Direction
347 17 28 26 34 44 43 47 43 36 40 52 59 62 64 66 56 57 86 129 109 111 125 99 40 354 283 287 319 336 332 317 298 291 290 297 300 298 293 296 297 297 299
293 300 324 343 0 21 34 32 24 23 24 27 34 57 61 63 54 47 45 17 347 17 61 37 348 309 301 302 305 305 304 307 299 288 286 291 301 305 296 296 298 299 298
278 267 267 285 292 301 321 349 359 359 354 349 342 5 38 15 17 8 342 325 321 294 306 295 312 299 293 286 279 277 287 293 292 289 291 297 299 298 297 294 296 297 298
275 269 260 268 283 282 280 302 317 322 319 314 312 293 272 298 316 317 302 290 291 290 296 297 297 305 296 288 285 284 288 288 291 295 295 294 294 292 293 295 294 296 295
264 263 262 266 276 280 279 284 290 290 291 289 285 279 273 277 282 284 280 274 276 287 296 298 292 291 291 287 288 287 286 285 287 291 294 296 293 292 291 293 294 293 293
260 258 256 265 275 283 284 287 285 276 276 277 275 273 276 277 275 274 273 272 274 281 291 299 297 296 292 287 284 286 287 287 288 290 289 290 292 291 289 289 290 289 289
259 261 260 265 271 276 279 279 273 268 275 273 270 268 272 276 273 273 272 270 272 279 286 290 294 295 296 293 286 284 285 287 287 289 289 289 290 291 290 290 290 290 291
262 262 264 263 267 274 277 276 272 267 272 275 272 268 268 272 273 271 270 269 272 278 283 286 290 289 292 292 288 286 286 287 286 286 287 289 290 292 293 293 294 294 295
264 262 262 265 270 271 277 274 271 270 272 274 277 276 270 270 271 271 270 272 275 277 277 279 284 287 289 290 290 290 292 293 291 288 288 289 290 294 293 291 291 294 295
264 265 265 265 270 271 274 275 270 267 273 277 276 273 270 272 274 273 271 272 272 273 273 277 278 280 284 287 289 291 293 292 291 289 289 290 290 292 294 294 293 294 295
266 265 264 265 269 272 274 276 273 271 272 272 274 273 273 273 274 269 267 268 270 272 274 276 277 279 281 283 286 289 290 291 289 287 288 290 290 292 294 294 292 293 294
272 267 264 265 269 271 272 273 273 272 271 272 273 272 272 272 271 271 269 267 272 277 277 278 276 276 278 281 283 287 288 287 289 290 289 289 290 292 293 292 292 292 293
272 270 268 269 272 273 271 269 270 271 273 274 272 270 271 270 271 273 272 274 278 279 276 279 277 276 278 280 281 284 287 289 289 289 290 289 290 291 292 292 291 291 292
270 269 270 272 273 273 273 271 270 273 274 272 270 270 268 266 269 272 275 278 281 280 280 280 280 278 280 280 281 283 285 287 288 288 289 288 288 289 290 290 290 291 292
271 271 272 274 274 269 269 271 268 271 275 276 272 268 266 268 269 271 273 277 279 278 279 280 281 279 281 281 280 282 285 285 287 287 289 289 288 290 290 290 289 290 292
269 269 270 274 276 275 272 269 267 268 269 273 272 270 271 272 271 271 272 275 277 279 280 279 280 280 280 281 282 283 285 286 287 289 289 290 291 291 291 291 290 290 292
264 266 267 271 273 274 273 270 270 268 265 267 270 271 272 272 273 273 272 273 273 276 279 280 278 279 280 279 282 284 285 286 287 288 289 290 292 292 292 293 292 292 294
265 265 266 268 270 273 273 268 268 270 268 267 269 271 272 272 274 275 274 273 273 274 276 277 280 280 279 278 281 284 284 285 287 287 288 289 291 293 293 293 292 293 295
268 266 263 264 267 268 270 270 269 270 272 272 271 272 275 274 274 275 275 276 276 277 279 278 279 281 280 280 281 284 286 287 289 289 290 291 291 293 292 292 292 293 294
267 265 262 263 266 267 268 271 272 272 271 271 272 272 273 272 273 274 275 276 276 276 278 281 281 283 282 284 286 287 288 290 291 292 291 291 290 290 291 292 293 294 295
265 264 263 262 263 264 266 269 269 271 272 271 270 269 270 270 272 273 274 275 277 278 278 279 280 281 281 283 286 289 290 291 292 292 291 291 291 291 292 293 293 293 295
261 262 264 264 262 263 265 267 268 271 271 270 270 270 269 270 272 274 275 275 277 278 277 278 279 279 281 282 284 287 289 291 293 293 293 294 293 293 294 293 291 291 293
260 262 263 263 262 263 264 264 267 268 269 270 271 272 271 272 273 274 274 275 277 277 277 276 278 280 280 282 284 285 287 290 293 294 291 291 293 295 295 294 292 292 293
261 262 263 262 261 261 264 262 263 267 269 271 271 270 271 273 274 276 277 276 276 276 275 275 277 279 280 280 282 285 286 288 290 290 291 291 292 294 293 293 292 293 293
259 259 260 261 260 261 262 263 264 267 269 271 272 271 272 273 274 275 277 277 276 277 276 274 275 277 278 279 281 284 287 288 288 290 291 292 292 293 292 291 292 292 293
259 258 259 260 261 262 264 264 265 266 268 270 272 273 273 273 274 276 275 275 277 276 275 274 275 275 277 279 282 283 285 288 289 290 290 290 291 291 292 292 293 294 294
Height
5908 5908 5907 5907 5906 5905 5905 5904 5903 5903 5902 5901 5901 5900 5900 5900 5899 5899 5899 5899 5899 5899 5899 5899 5898 5898 5898 5898 5898 5898 5897 5897 5896 5896 5896 5896 5895 5895 5895 5894 5894 5893 5892
5908 5908 5907 5907 5906 5906 5905 5904 5903 5903 5902 5902 5901 5901 5900 5900 5900 5899 5899 5899 5899 5899 5899 5898 5898 5898 5897 5897 5897 5897 5897 5896 5896 5895 5895 5895 5895 5893 5893 5893 5892 5891 5891
5907 5906 5906 5906 5905 5905 5905 5904 5903 5903 5902 5901 5901 5901 5900 5900 5899 5899 5899 5899 5899 5899 5898 5898 5897 5897 5896 5896 5896 5896 5896 5895 5895 5894 5894 5894 5893 5892 5892 5891 5890 5889 5889
5906 5905 5904 5904 5904 5904 5904 5903 5903 5902 5901 5901 5900 5900 5900 5899 5899 5899 5898 5898 5898 5898 5898 5897 5897 5896 5895 5895 5895 5895 5894 5894 5893 5893 5892 5892 5891 5890 5889 5889 5888 5887 5886
5904 5903 5903 5903 5902 5902 5902 5902 5901 5901 5900 5900 5899 5899 5899 5898 5898 5898 5897 5897 5897 5896 5896 5896 5895 5894 5894 5894 5893 5893 5892 5892 5891 5891 5890 5889 5889 5888 5887 5886 5885 5884 5883
5902 5901 5901 5901 5901 5901 5901 5900 5899 5899 5898 5898 5898 5897 5897 5897 5896 5896 5896 5895 5895 5895 5894 5894 5893 5893 5892 5891 5891 5890 5890 5889 5889 5888 5887 5886 5886 5885 5884 5883 5882 5881 5880
5899 5899 5898 5899 5898 5898 5898 5897 5896 5896 5896 5896 5895 5895 5895 5895 5895 5894 5894 5894 5893 5893 5892 5892 5891 5890 5889 5889 5888 5888 5887 5886 5886 5885 5884 5883 5882 5881 5880 5879 5878 5877 5876
5896 5896 5896 5896 5896 5895 5895 5894 5894 5894 5893 5893 5892 5892 5892 5892 5892 5892 5892 5891 5891 5890 5890 5889 5888 5887 5886 5886 5885 5885 5884 5883 5882 5882 5881 5880 5879 5878 5877 5876 5874 5873 5872
5893 5893 5893 5892 5893 5893 5892 5892 5891 5891 5891 5890 5890 5889 5889 5889 5889 5889 5888 5888 5888 5887 5887 5886 5885 5884 5884 5883 5882 5881 5881 5880 5879 5878 5877 5876 5875 5874 5873 5872 5871 5870 5868
5890 5889 5890 5889 5890 5890 5889 5889 5888 5888 5888 5888 5887 5887 5886 5886 5885 5885 5885 5885 5884 5884 5883 5883 5882 5881 5881 5880 5879 5878 5877 5877 5875 5874 5874 5873 5872 5871 5869 5868 5867 5866 5864
5885 5886 5886 5886 5886 5886 5885 5885 5885 5884 5884 5884 5883 5883 5882 5882 5882 5881 5881 5881 5880 5880 5879 5879 5878 5877 5877 5876 5875 5875 5874 5873 5872 5871 5870 5869 5868 5866 5865 5864 5863 5861 5860
5881 5881 5881 5882 5882 5881 5881 5881 5881 5881 5880 5879 5879 5879 5879 5878 5878 5877 5876 5876 5876 5875 5875 5874 5873 5873 5872 5872 5871 5870 5869 5868 5867 5866 5865 5864 5863 5862 5861 5859 5858 5857 5855
5877 5877 5877 5877 5877 5877 5877 5877 5877 5876 5876 5875 5875 5875 5874 5874 5874 5873 5873 5872 5871 5870 5870 5870 5869 5869 5868 5867 5866 5865 5864 5864 5863 5862 5861 5860 5858 5857 5855 5854 5852 5851 5850
5872 5872 5873 5873 5873 5872 5872 5872 5872 5872 5871 5871 5870 5870 5869 5869 5869 5869 5869 5868 5866 5866 5865 5865 5865 5864 5863 5863 5862 5861 5860 5859 5858 5856 5855 5854 5853 5851 5850 5848 5846 5845 5843
5867 5867 5867 5867 5867 5867 5866 5866 5867 5867 5866 5866 5865 5864 5864 5864 5864 5864 5863 5863 5862 5862 5861 5861 5860 5859 5859 5858 5857 5856 5855 5854 5852 5851 5849 5848 5846 5845 5843 5842 5840 5838 5837
5862 5862 5862 5862 5861 5861 5861 5861 5862 5862 5861 5861 5860 5860 5859 5859 5858 5858 5858 5858 5857 5857 5856 5856 5855 5854 5853 5852 5852 5851 5849 5848 5846 5845 5843 5842 5840 5838 5836 5834 5833 5831 5830
5856 5856 5856 5856 5856 5856 5856 5856 5856 5856 5856 5855 5855 5855 5854 5854 5853 5853 5853 5852 5852 5851 5851 5850 5849 5848 5847 5847 5846 5845 5844 5842 5840 5839 5837 5835 5834 5832 5830 5828 5826 5825 5823
5849 5850 5850 5850 5850 5850 5850 5850 5850 5850 5849 5849 5849 5849 5849 5848 5848 5848 5847 5846 5846 5845 5845 5844 5843 5842 5842 5841 5840 5839 5837 5836 5834 5832 5831 5829 5827 5825 5823 5822 5820 5818 5816
5843 5843 5843 5844 5844 5844 5844 5844 5844 5844 5843 5843 5843 5843 5843 5842 5842 5842 5841 5841 5840 5840 5839 5838 5838 5837 5836 5835 5834 5833 5831 5830 5828 5826 5824 5822 5820 5819 5817 5815 5813 5811 5809
5835 5836 5836 5837 5837 5838 5837 5837 5838 5838 5838 5838 5837 5837 5836 5836 5836 5836 5835 5835 5834 5833 5833 5832 5831 5830 5829 5828 5827 5826 5825 5823 5821 5819 5817 5815 5814 5812 5810 5808 5806 5805 5803
5828 5828 5829 5830 5830 5831 5831 5831 5831 5832 5832 5831 5831 5830 5830 5830 5830 5829 5828 5828 5827 5827 5826 5826 5825 5824 5823 5822 5821 5820 5818 5816 5814 5812 5810 5809 5806 5805 5803 5801 5799 5798 5796
5820 5820 5821 5822 5823 5824 5824 5824 5825 5825 5824 5824 5823 5823 5823 5823 5823 5822 5822 5821 5820 5820 5819 5819 5818 5818 5816 5815 5814 5813 5811 5809 5807 5805 5803 5801 5799 5798 5796 5794 5792 5790 5788
5811 5812 5813 5814 5815 5816 5816 5817 5817 5818 5817 5817 5817 5817 5816 5816 5816 5815 5814 5814 5813 5813 5812 5812 5811 5810 5809 5808 5807 5805 5804 5802 5800 5798 5796 5794 5792 5790 5788 5787 5785 5783 5781
5802 5803 5804 5805 5806 5807 5808 5809 5809 5810 5810 5810 5810 5809 5809 5809 5808 5807 5807 5806 5805 5805 5805 5804 5804 5803 5802 5801 5800 5798 5796 5794 5793 5791 5789 5787 5785 5783 5781 5779 5777 5776 5774
5793 5794 5795 5796 5797 5798 5799 5800 5800 5801 5801 5801 5802 5802 5802 5801 5800 5800 5800 5799 5798 5798 5797 5797 5796 5795 5795 5794 5793 5791 5789 5787 5785 5783 5781 5780 5778 5776 5774 5772 5770 5768 5766
5782 5783 5785 5786 5788 5788 5790 5791 5791 5792 5792 5793 5793 5793 5793 5792 5792 5792 5792 5791 5790 5790 5789 5789 5788 5787 5787 5786 5785 5783 5781 5779 5778 5776 5774 5772 5770 5768 5766 5764 5762 5760 5758